Theta_e
334 334 325 323 307 308 300 301 308 309 312 319 319 321 320 321 316 313 333 337 339 340 348 352 355 354 354 353 352 350 349 348 348 347 346 345 343 340 338 339 336 336 336 336 336 335 335 335 336
332 323 325 319 302 296 298 305 305 311 313 317 318 316 317 319 324 325 327 338 339 343 349 347 355 354 354 353 351 350 349 348 348 347 346 345 344 342 339 339 338 337 336 336 336 336 336 336 335
322 320 317 311 302 296 298 305 307 310 316 317 318 319 319 320 327 328 333 339 339 344 347 349 355 354 354 353 352 350 349 348 348 347 346 346 345 344 343 342 339 339 338 338 337 337 337 338 338
319 319 316 305 300 303 303 309 312 313 315 318 320 317 321 328 330 333 338 339 338 341 345 349 354 354 354 354 352 350 349 349 349 347 347 346 345 344 343 343 341 339 340 340 340 339 339 339 340
320 315 302 301 301 306 310 310 312 309 312 315 318 317 318 327 334 337 339 339 337 340 343 344 354 354 354 354 353 351 349 349 348 348 347 346 346 345 344 343 340 340 341 341 341 341 341 342 343
310 312 300 295 299 305 309 312 312 311 314 315 317 318 320 328 334 337 339 340 339 339 344 343 353 353 353 354 353 351 350 349 348 348 347 347 346 345 344 343 341 341 341 342 343 344 344 345 345
305 306 299 300 300 302 305 311 309 310 311 315 318 317 321 324 336 339 339 341 340 340 342 343 347 352 353 353 352 351 350 349 348 348 347 347 346 345 345 344 343 342 343 344 344 345 346 346 345
310 308 299 300 298 300 309 311 313 312 313 319 320 315 316 324 337 340 338 337 336 337 337 338 344 346 347 348 353 352 351 349 349 348 348 347 347 347 345 345 345 344 344 345 345 346 348 348 346
314 302 298 299 300 302 310 310 315 316 313 315 318 318 320 328 338 337 337 336 335 333 335 335 335 344 347 346 348 353 352 350 350 349 349 346 343 344 344 345 345 345 345 345 347 348 348 347 345
310 303 302 305 305 305 309 311 312 312 312 313 316 321 321 324 329 333 333 333 335 337 336 334 335 340 344 343 348 349 348 347 345 344 345 345 344 345 342 345 346 346 347 347 348 349 347 345 341
310 304 308 307 308 309 308 309 313 310 309 313 313 317 320 321 323 325 329 333 335 337 339 339 337 338 340 340 343 344 346 347 348 348 349 348 345 344 343 341 343 345 346 342 345 345 345 343 342
305 310 310 309 310 310 308 312 311 312 312 316 318 320 320 320 322 323 325 327 332 333 337 342 342 339 340 340 339 342 343 346 345 345 348 348 343 342 342 339 340 344 342 343 345 344 346 346 344
305 307 310 312 312 311 313 312 312 314 318 321 321 321 320 321 322 325 326 328 330 330 334 336 342 345 344 342 341 341 342 342 344 344 346 346 341 342 341 340 338 339 340 340 342 344 345 345 343
306 307 307 310 313 313 311 312 314 315 319 318 318 318 319 319 321 324 326 326 329 332 333 336 334 346 345 343 343 342 343 343 343 342 344 346 343 344 339 339 337 338 339 339 339 342 347 347 345
303 301 303 306 309 309 312 305 308 314 316 315 316 317 318 319 321 322 325 327 330 331 334 336 338 337 345 346 344 343 341 341 341 342 345 345 345 343 343 338 337 339 341 341 341 344 344 343 344
298 299 294 302 303 304 305 300 310 314 313 313 315 316 316 318 320 322 324 327 331 332 334 337 329 329 342 346 344 342 341 341 342 342 343 345 345 344 342 338 337 339 340 338 341 340 339 341 340
296 292 295 298 304 303 302 301 308 312 311 312 314 315 315 317 319 324 323 325 329 332 334 332 333 330 336 343 343 343 344 341 342 343 343 344 344 344 342 339 339 342 338 337 340 342 341 339 338
290 291 294 296 301 301 300 301 306 309 309 310 312 313 314 315 317 321 322 324 328 333 334 332 330 332 335 340 342 342 341 342 343 343 343 345 343 343 342 340 341 339 335 339 340 341 339 338 337
295 294 293 297 301 300 299 302 304 308 308 308 310 312 314 315 318 319 321 325 327 334 335 333 330 333 335 337 337 339 338 338 340 342 344 344 343 343 342 340 339 339 338 341 340 339 338 333 331
293 292 292 296 299 298 299 300 304 305 306 308 309 310 312 313 315 318 321 324 328 331 332 333 333 333 336 338 340 341 340 339 341 343 344 344 344 343 342 341 339 340 339 339 339 338 331 330 329
291 290 292 292 296 298 296 295 299 303 305 306 307 309 310 311 312 316 318 322 326 327 331 331 335 335 337 340 339 339 339 338 338 340 341 343 343 343 343 342 340 341 340 339 339 336 333 327 326
288 294 293 292 291 289 296 288 297 301 302 304 305 306 308 309 311 314 317 320 324 325 327 331 336 338 339 340 339 340 338 336 339 339 341 342 343 343 343 342 342 342 339 339 338 336 335 333 325
289 294 293 293 292 291 292 288 293 299 298 301 304 306 307 309 312 311 313 317 319 323 323 333 339 340 340 340 341 340 340 338 339 339 342 343 343 343 341 342 341 339 337 336 338 336 335 332 329
295 292 292 292 290 284 290 289 291 295 298 300 303 305 307 308 310 311 313 315 317 319 328 336 339 340 340 340 340 341 339 337 336 337 336 336 338 338 340 340 340 336 338 338 336 337 336 333 331
291 289 282 280 281 281 291 288 291 299 300 301 302 304 307 309 310 311 312 314 317 325 333 337 338 338 339 338 339 339 339 339 338 337 335 336 336 337 340 341 340 338 339 337 336 335 335 333 331
288 288 283 277 279 282 289 285 291 300 302 303 304 305 308 309 312 314 314 314 317 325 333 337 338 338 338 338 338 339 340 337 337 338 337 337 337 338 341 339 339 338 337 336 336 334 333 333 332
288 284 291 284 286 284 287 290 296 299 300 302 302 305 306 310 314 319 321 316 322 330 335 338 338 338 338 337 337 337 337 338 336 338 339 337 339 337 338 338 337 337 336 336 336 332 333 333 333
291 293 284 285 278 278 284 287 289 295 297 300 301 303 306 313 319 323 322 320 329 334 338 339 339 337 336 336 336 335 337 338 338 338 337 337 338 337 337 336 337 336 336 335 335 333 334 333 332
289 287 288 288 286 281 281 286 297 297 299 299 301 303 305 310 319 324 324 326 330 335 337 337 336 334 334 335 335 336 335 336 337 337 337 338 338 337 336 335 335 335 334 334 333 334 332 330 331
291 288 287 284 283 286 285 285 298 300 300 301 302 304 306 310 318 324 323 323 329 333 335 335 335 333 334 334 334 335 335 335 336 335 336 337 337 337 334 334 334 333 332 333 333 331 331 330 330
Wind_Speed
6 5 2 3 4 1 4 7 7 7 4 4 4 6 15 4 12 3 4 11 9 19 19 21 22 22 21 20 19 19 17 16 16 16 16 16 16 15 14 12 11 10 10 9 9 8 7 6 6
7 4 3 1 5 6 6 7 13 8 9 11 7 7 6 10 5 2 5 13 9 15 17 19 21 21 21 20 19 19 18 18 17 16 16 17 17 17 16 14 13 12 10 9 8 7 7 6 5
8 1 3 3 5 11 5 9 12 9 10 12 5 5 4 3 3 2 3 17 13 16 18 17 21 20 21 20 19 18 19 18 18 18 17 16 17 17 16 15 14 13 11 10 9 7 6 5 4
3 3 2 5 13 11 11 1 4 5 7 4 7 4 2 2 2 4 12 16 14 16 17 18 22 21 20 19 19 20 20 20 19 19 18 18 17 16 16 15 14 14 12 11 9 8 7 5 4
1 1 5 6 14 8 10 15 12 17 10 6 8 5 3 2 1 8 16 15 16 15 16 18 22 22 20 20 20 20 20 20 20 20 19 19 17 16 16 15 15 14 12 10 9 8 7 7 6
3 1 5 15 15 12 12 12 13 12 12 10 6 5 3 0 5 7 11 14 12 15 15 15 18 17 19 19 20 20 20 19 19 20 19 18 17 16 16 15 14 13 12 10 9 8 8 8 6
4 4 11 9 7 12 18 11 14 12 13 6 4 4 1 4 8 7 9 10 9 10 11 11 14 15 16 17 17 18 18 17 17 19 19 18 17 17 15 14 13 11 10 10 10 9 9 7 7
4 3 11 9 12 16 6 2 3 3 6 11 2 2 4 2 6 6 6 7 6 7 9 10 10 13 15 15 18 19 19 18 18 16 16 17 16 15 14 11 10 10 8 10 10 10 9 8 7
4 8 13 17 13 11 1 5 1 4 6 6 5 3 6 2 6 7 7 8 6 7 10 11 13 13 14 15 14 17 20 18 17 17 17 14 11 13 13 12 13 14 14 11 11 10 9 8 8
10 11 20 7 15 10 11 5 7 6 10 8 11 5 13 4 4 5 9 12 12 13 13 13 13 14 14 11 13 15 14 14 14 15 15 12 12 11 12 12 18 18 17 12 11 11 11 10 6
11 20 21 15 15 13 17 18 9 12 19 15 9 8 13 11 12 7 9 11 13 12 9 14 11 10 13 12 9 8 9 9 10 16 14 13 10 10 10 8 7 7 12 8 10 10 9 9 6
15 19 22 13 14 9 16 15 13 14 25 12 12 13 13 14 11 12 12 12 14 11 12 11 13 13 13 10 11 11 11 11 10 12 15 11 9 11 10 9 9 9 7 8 8 6 9 9 9
25 21 14 18 18 13 12 18 15 18 22 16 18 20 17 12 11 11 13 12 10 11 13 12 11 13 12 14 11 11 12 12 12 12 14 12 12 11 11 9 8 8 8 7 6 7 8 9 10
12 20 24 18 12 9 16 23 15 14 20 14 14 19 21 16 14 13 12 13 11 11 12 11 11 12 13 14 15 11 10 12 12 11 12 17 12 10 12 10 10 8 7 6 6 8 7 8 9
21 18 9 14 21 20 14 31 30 25 22 23 20 19 19 16 14 15 13 10 10 10 11 12 11 10 13 15 13 12 11 12 11 11 14 16 15 14 13 10 10 8 7 7 6 8 7 7 7
11 17 22 25 13 7 14 31 28 13 19 21 21 18 12 13 13 12 10 10 11 12 11 12 10 11 13 12 11 10 10 10 10 10 10 15 15 15 13 10 9 8 7 7 7 6 6 6 6
15 21 26 25 22 14 17 32 23 16 18 17 16 16 14 14 14 12 8 12 11 11 11 13 9 11 11 11 9 10 10 9 8 8 9 13 14 14 12 10 9 9 7 7 6 6 6 6 6
21 27 25 24 9 22 19 35 21 17 13 18 17 16 16 17 19 13 12 11 11 12 10 10 8 8 8 6 7 7 7 7 7 8 9 12 10 13 11 9 9 8 8 7 6 7 5 4 4
12 16 23 17 13 14 23 30 26 21 22 24 24 22 19 19 17 13 11 11 11 11 9 6 7 5 6 6 7 7 7 7 7 8 11 11 10 11 12 8 10 10 9 9 7 4 4 3 3
24 21 11 9 5 9 19 26 19 13 18 19 20 21 21 19 16 15 14 13 13 12 11 9 6 5 8 7 5 3 6 6 7 7 9 10 11 12 11 10 9 11 8 8 8 5 3 4 5
20 25 20 9 4 10 11 20 21 17 19 20 20 20 19 18 17 16 16 16 14 12 12 9 5 7 9 10 7 6 8 6 6 7 7 9 11 12 11 11 8 9 8 7 7 7 8 4 3
21 14 18 18 11 13 4 13 17 16 18 18 17 17 18 17 18 20 19 18 15 15 10 7 4 8 10 13 9 12 7 8 5 7 7 8 10 10 10 11 10 9 6 6 6 6 6 6 5
17 7 11 11 16 15 19 13 20 16 21 23 20 18 17 22 22 22 21 19 18 13 10 6 6 8 9 11 10 10 8 6 7 7 11 8 8 9 9 9 9 9 6 5 7 8 8 6 5
10 18 18 10 9 15 17 13 19 18 21 20 15 14 16 16 17 19 19 16 15 10 7 6 8 9 11 10 10 11 13 11 10 9 9 7 6 6 8 8 8 7 7 8 7 7 7 7 7
10 12 10 12 12 17 11 13 20 10 10 7 5 9 13 13 13 13 14 13 12 8 7 7 10 11 11 11 11 11 13 13 13 12 9 9 7 6 7 8 8 7 7 7 6 6 7 8 7
14 14 9 17 13 14 13 15 10 17 18 16 13 7 10 11 11 12 13 11 9 8 8 10 12 13 13 12 12 11 12 8 8 8 8 6 6 6 8 7 6 7 7 7 7 6 6 6 6
10 12 14 5 1 8 11 22 17 14 11 8 5 7 15 17 16 17 15 10 6 8 11 12 14 14 13 13 10 10 10 10 9 9 8 7 6 6 7 7 7 8 8 8 8 5 6 6 5
6 6 10 6 7 10 9 17 9 3 12 2 8 12 16 18 17 16 11 5 6 9 11 13 15 15 15 13 11 10 10 10 10 9 9 8 7 7 7 7 8 9 8 8 7 5 5 4 3
4 7 4 6 10 7 6 4 5 17 7 7 8 12 18 17 17 14 9 2 6 10 13 14 14 16 14 13 12 12 10 10 9 8 7 7 7 7 7 8 9 9 8 7 6 5 4 4 3
9 6 3 7 18 12 8 5 7 10 8 12 14 18 19 15 16 11 7 1 6 11 13 14 14 14 14 13 13 12 10 9 8 7 7 7 7 7 8 8 8 8 7 7 6 5 4 5 5
Wind_Direction
189 178 223 223 214 222 226 243 254 255 231 154 133 192 194 204 167 206 16 175 149 154 164 172 172 173 173 176 174 171 170 171 169 169 163 160 159 157 160 160 160 159 153 152 150 146 141 132 125
152 163 210 146 237 215 228 232 244 257 260 292 250 211 205 215 234 253 161 168 165 155 164 175 177 175 178 179 175 171 171 175 172 173 170 167 164 162 164 165 165 163 162 160 159 159 153 149 145
153 244 219 209 214 224 244 212 241 245 291 277 284 214 210 205 205 216 127 158 153 162 168 178 178 180 184 180 176 175 176 179 175 179 176 175 169 168 167 166 168 166 168 171 170 170 170 174 174
191 176 153 232 231 229 231 213 163 283 332 228 270 256 233 249 215 173 145 158 157 169 173 179 179 183 188 183 180 182 182 182 180 183 181 179 177 174 171 170 170 172 175 179 182 183 189 208 216
38 222 224 236 244 251 249 264 273 282 287 253 254 241 231 230 109 146 155 162 170 173 181 185 184 185 187 188 186 189 188 189 184 185 185 182 181 177 175 175 175 177 181 187 194 200 209 220 233
181 272 217 232 237 242 263 267 270 266 287 288 229 239 184 300 175 164 168 176 180 176 185 190 189 185 192 193 192 192 194 194 192 188 188 185 183 182 178 178 181 185 187 192 205 216 222 233 247
232 212 236 242 252 258 260 255 259 275 275 289 279 231 336 233 178 160 181 178 175 184 185 185 190 192 200 203 200 199 200 201 202 196 191 188 186 184 183 182 183 188 197 201 213 225 235 241 240
218 235 234 235 235 256 260 249 326 215 264 320 282 260 357 339 141 133 168 179 186 181 192 193 195 196 203 208 206 204 202 201 204 204 199 195 189 187 187 181 187 191 216 231 228 234 243 235 236
156 231 242 233 216 226 222 239 280 299 272 307 334 57 342 70 128 143 161 188 196 208 203 200 201 204 205 210 210 208 210 205 205 204 206 195 198 192 187 185 185 197 191 232 244 243 252 245 252
202 227 234 226 229 230 236 224 300 298 296 284 308 235 2 96 159 206 196 201 209 220 213 210 207 208 207 209 210 212 213 212 209 210 206 205 201 196 196 190 200 197 197 189 233 240 245 241 248
203 235 235 229 228 231 247 259 237 272 275 270 271 302 332 327 320 291 247 241 229 234 231 215 210 215 214 216 206 213 213 210 210 210 202 200 195 195 197 204 205 196 217 173 208 222 231 236 245
239 227 242 247 239 230 237 252 252 249 256 273 279 288 283 279 276 274 270 258 244 234 241 226 210 205 210 216 216 210 212 206 210 207 200 194 195 199 203 211 198 206 212 184 205 221 232 236 238
235 239 240 241 253 252 265 246 248 254 263 264 273 275 269 260 258 260 267 279 272 243 253 247 217 213 207 208 218 215 212 214 216 208 201 199 200 201 203 211 211 209 205 202 199 225 234 234 231
236 241 245 245 235 235 251 265 239 249 253 250 255 263 267 265 245 252 252 259 252 245 249 256 230 223 213 214 214 211 212 215 211 208 205 204 202 200 209 207 213 208 206 204 216 229 235 231 235
253 255 237 236 238 247 252 278 243 244 256 259 254 256 261 253 248 243 250 243 246 245 256 258 256 235 221 219 217 215 212 212 213 208 202 201 202 206 209 209 211 208 201 205 219 235 239 240 226
241 235 244 235 209 224 186 259 265 220 242 251 264 261 255 248 256 260 256 245 250 252 239 248 243 232 223 224 216 215 214 209 210 204 196 201 203 207 208 209 210 204 199 208 215 224 230 242 230
225 236 227 238 212 197 193 254 257 255 240 247 248 263 276 282 272 261 247 246 255 254 256 262 261 251 238 226 218 212 202 204 206 199 195 196 203 208 208 208 198 194 203 210 206 215 231 227 235
225 227 236 237 217 213 217 249 251 267 269 268 262 263 268 270 274 285 272 264 264 270 262 268 275 262 239 211 192 193 193 194 193 194 191 192 202 203 204 202 190 195 209 202 204 221 207 254 276
260 265 245 259 229 208 221 244 250 246 259 261 269 276 276 278 286 288 274 263 265 261 257 251 292 272 193 181 182 191 193 186 192 192 187 186 193 195 199 195 184 190 193 197 196 206 191 210 218
246 255 267 254 246 237 245 250 253 250 256 258 265 270 275 280 279 277 272 270 264 270 276 279 274 225 200 200 185 158 149 184 182 189 176 182 185 188 195 192 189 185 182 179 184 186 160 223 185
236 241 240 251 296 249 274 266 254 245 248 253 257 263 265 264 272 272 271 271 275 269 267 272 276 217 197 189 158 122 122 123 166 174 164 183 180 182 190 182 185 180 185 191 176 194 203 195 186
241 235 240 239 253 244 201 277 259 252 252 251 259 262 260 268 257 256 263 263 253 259 268 273 231 200 190 182 181 172 166 159 171 164 165 168 172 177 179 181 183 183 183 185 185 198 208 208 188
235 206 202 215 227 243 239 264 260 253 256 257 255 256 266 262 261 264 261 261 262 262 260 253 191 177 179 182 183 170 153 130 139 145 154 141 156 170 172 173 174 174 175 177 185 188 199 202 202
226 214 237 251 247 236 231 233 268 247 258 262 264 260 272 278 277 271 264 261 257 257 237 195 173 164 168 172 169 162 141 138 139 149 142 148 157 162 174 170 170 165 176 182 190 186 198 198 216
212 189 188 213 215 237 212 220 246 265 266 271 224 323 305 287 288 278 269 258 247 222 193 173 167 158 162 157 157 147 138 141 150 159 155 154 154 164 169 167 163 172 179 181 176 185 203 206 209
213 200 208 219 214 229 208 229 240 230 267 273 266 314 329 327 328 304 295 270 249 207 182 168 161 151 155 150 141 138 135 146 153 154 155 157 166 166 160 163 167 175 182 175 185 197 203 199 205
193 212 224 282 136 228 195 243 270 257 275 255 292 329 351 342 341 331 318 285 226 178 167 160 152 146 145 140 135 133 137 143 143 142 147 148 142 146 159 171 177 183 178 180 185 192 189 192 197
249 216 192 210 207 208 204 240 233 198 207 27 35 4 342 346 346 342 336 284 177 159 153 152 148 142 140 136 134 138 138 136 134 136 133 143 145 147 154 167 177 173 175 184 180 181 175 184 190
242 233 249 249 240 249 243 211 218 223 94 47 14 351 352 346 348 352 347 3 160 152 149 144 140 138 135 134 133 131 128 126 127 133 141 146 146 152 165 168 170 169 176 170 179 186 158 191 166
252 288 260 257 213 240 284 282 113 118 70 8 351 346 344 344 350 351 341 48 162 154 146 146 143 138 136 132 131 128 131 132 134 140 140 145 144 160 161 164 162 166 167 173 185 178 168 186 203